Location: Newark
(42.8481°N, 0.4872°E)
Time: 19:51:44
(UTC+00:00)

Transit 2A - Pass Details

Date: 02 November 2020
Orbit: 595 x 963 km, 66.7° (Epoch: 03 December)

Event Time Altitude Azimuth Distance (km) Brightness Sun altitude
Rises 23:50:13 0° 215° (SW) 3,617 - -62.2°
Reaches altitude 10° 23:52:46 10° 218° (SW) 2,688 - -62.2°
Maximum altitude 23:59:07 73° 302° (WNW) 1,004 - -62.0°
Drops below altitude 10° 00:05:23 10° 28° (NNE) 2,643 - -61.8°
Sets 00:07:53 0° 30° (NNE) 3,553 - -61.7°
